Location: Mahannah Oil Field
(37.4664°N, 96.6003°W)
Time: 09:21:12
(UTC+00:00)

Courier 1B - Pass Details

Date: 21 January 2021
Orbit: 962 x 1209 km, 28.3° (Epoch: 02 March)

Event Time Altitude Azimuth Distance (km) Brightness Sun altitude
Rises 06:50:08 0° 232° (SW) 3,673 - -72.2°
Reaches altitude 10° 06:53:12 10° 221° (SW) 2,704 - -72.0°
Maximum altitude 06:58:34 28° 165° (SSE) 1,727 - -71.8°
Drops below altitude 10° 07:03:54 10° 109° (ESE) 2,690 - -71.5°
Sets 07:06:56 0° 98° (E) 3,651 - -71.3°
